Славное

Россия / Сахалинская область     45°21′53″N   148°44′43″E
темп.,
°C
ветер,
м/с
пор.,
м/с
влажн.,
%
обл.,
%
осадки,
мм/ч
давл.,
гПа
погр.,
м
7 мая, пт
пт723:00+2зюз599673 0.0 1011121
02:00+3юз7109517 0.0 101190
05:00+3зюз479159 0.0 101065
08:00+5зсз45740 0.0 101120
11:00+7зюз446810 0.0 101212
14:00+5ююз3381100 0.0 101217
17:00+3юз349114 0.0 101256
20:00+3ююз239432 0.0 101255
8 мая, сб
сб823:00+4юз6118919 0.0 1013126
02:00+2ююз2295100 0.0 101115
05:00+3з1193100 0.0 100912
08:00+3всв2389100 0.0 100719
11:00+3в4497100 1.6 100522
14:00+3ссв5599100 6.0 100237
17:00+3с2298100 15.8 100113
20:00+4ююз1199100 3.4 100110
9 мая, вс
вс923:00+4с2210063 3.4 100210
02:00+4сз5510090 0.0 100429
05:00+4св3399100 0.1 100516
08:00+4вюв3398100 0.1 100712
11:00+3ююз3399100 0.2 100835
14:00+2ююз2399100 0.0 100736
17:00+3юв1299100 0.1 100521
20:00+3в57100100 0.1 1005135
10 мая, пн
пн1023:00+3в61199100 0.3 1004222
02:00+4вюв91697100 2.9 1000239
05:00+3ююв81499100 4.7 1000211
08:00+2вюв11100100 0.1 100013
11:00+3ссз11100100 0.1 100110
14:00+3з119798 0.1 100110
17:00+3ю2297100 0.1 100219
20:00+3юз11100100 0.0 100333
11 мая, вт
вт1123:00+3св1299100 0.1 100317
02:00+3юв2299100 0.0 100320
05:00+3св4499100 0.0 100435
08:00+3ссв569366 0.0 100669
11:00+3всв349371 0.0 100869
14:00+4ссв229138 0.0 100928
17:00+4ссв449099 0.0 101248
20:00+3ссв459193 0.0 1015212